[[{"header":{"parameterUnit":"m.s-1","parameterCategory":1,"la1":30.2991,"la2":30.254,"lo1":-89.0895,"lo2":-89.0444,"dy":0.0017,"dx":0.0017,"nx":28,"ny":28,"refTime":"2024-07-29T21:00:00:Z","depth":0,"parameterNumber":2,"parameterNumberName":"U-component_of_WINDS"},"data":[0,0,0,0,0,0,0,0,0,0,0,0,0,0,0,0,0,0,0,0,0,0,0,0,0,0,0,0,0,0,0,0,0,0,0,0,0,0,0,0,0,0,0,0,0,0,0,0,0,0,0,0,0,0,0,0,0,0,3.9953,3.9954,0,3.9998,3.9998,3.9999,3.9956,3.9954,3.9953,3.9951,3.9997,4.0,4.0003,0,0,0,0,0,0,0,0,0,0,0,0,0,3.9835,3.9837,3.9953,3.9954,3.9954,3.9997,3.9998,3.9999,3.9956,3.9954,3.9952,3.995,3.9996,3.9999,4.0003,0,0,0,0,0,0,0,0,0,0,0,0,0,3.9883,3.9838,3.9953,3.9938,3.9937,3.9997,3.9998,3.9999,3.9957,3.9954,3.9952,3.9949,3.9995,3.9999,4.0003,4.008,0,0,4.0016,4.0018,0,0,0,0,0,0,0,0,3.988,3.9888,3.994,3.9939,3.9939,3.9969,3.9973,4.0026,3.9957,3.9949,3.9951,3.9948,3.999,3.9994,4.0008,4.0082,4.0084,4.0016,4.0019,4.0021,4.0022,0,0,0,0,0,0,0,3.9877,3.9885,3.9971,3.9941,3.994,3.993,3.9934,3.9983,3.9983,3.995,3.9947,3.9953,3.9989,4.0004,4.0009,4.0085,4.0016,4.002,4.0023,4.0024,4.0227,4.023,0,0,0,0,0,0,3.9875,3.9883,3.9969,3.9972,3.9903,3.9935,3.9939,3.9962,3.9983,3.9983,3.9955,3.9951,3.9998,4.0004,4.001,4.0103,4.0021,4.0025,4.0027,4.0225,4.0228,4.0231,0,0,0,0,0,0,3.9873,3.9883,3.9967,3.9927,3.9937,3.9939,3.9965,3.9964,3.9979,3.9986,3.9986,3.997,3.9996,4.0004,4.0064,4.0104,4.0027,4.003,4.0221,4.0226,4.023,4.0289,0,0,0,0,0,0,3.987,3.9883,3.9911,3.9928,3.9939,4.002,3.9967,3.9966,3.9986,3.9981,4.0001,4.0002,3.9995,4.0058,4.0068,4.0109,4.0034,4.0218,4.0223,4.0228,4.0284,4.0295,4.0305,0,0,0,0,0,3.9865,3.9926,3.9913,3.9923,3.9975,4.0022,4.0028,4.0019,3.999,4.0019,4.0024,4.0001,4.0098,4.0064,4.0075,4.0118,4.0215,4.0222,4.0228,4.0279,4.0293,4.0305,0,0,0,0,0,0,3.9913,3.9927,3.9913,3.998,4.0,4.0015,4.0051,4.0034,4.0063,4.0057,4.0045,4.005,4.0113,4.0121,4.0083,4.0195,4.0152,4.0161,4.0187,4.02,4.0211,4.0208,4.0037,0,0,0,0,0,3.9931,3.9968,3.9979,4.0037,4.0048,4.0048,4.0068,4.006,4.008,4.0088,4.0098,4.0119,4.0154,4.0178,4.021,4.0285,4.029,4.032,4.0331,4.0339,4.0347,4.039,4.0404,4.0252,4.0252,4.0252,0,0,3.9969,3.9982,4.0006,4.0047,4.0061,4.0101,4.0055,4.0098,4.0128,4.0095,4.0152,4.016,4.0182,4.025,4.0281,4.0259,4.0391,4.0348,4.0355,4.0358,4.0398,4.0412,4.0425,4.0257,4.0256,4.0255,0,0,4.0059,4.0072,4.0123,4.0139,4.0162,4.0162,4.0174,4.0192,4.0196,4.0253,4.023,4.0266,4.0326,4.0344,4.0361,4.0462,4.0442,4.0473,4.0528,4.057,4.0582,4.0592,4.063,4.0643,4.0481,4.0481,4.0481,0,4.0104,4.0162,4.0151,4.0197,4.0217,4.019,4.0242,4.0258,4.0291,4.0306,4.0281,4.0359,4.0372,4.0445,4.047,4.0484,4.0499,4.047,4.0581,4.0591,4.0601,4.0636,4.065,4.0484,4.0484,4.0484,4.0483,0,4.0216,4.0257,4.0296,4.0329,4.0353,4.0402,4.04,4.0426,4.0416,4.042,4.048,4.0495,4.0532,4.0548,4.0539,4.0621,4.0607,4.0582,4.0539,4.0619,4.0653,4.0666,4.049,4.0488,4.0487,4.0486,0,0,4.0336,4.0364,4.0379,4.0395,4.0419,4.0451,4.05,4.0536,4.0559,4.0583,4.0625,4.0679,4.0656,4.0676,4.0669,4.0705,4.0786,4.0676,4.0676,4.0697,4.088,4.0899,4.0915,4.0773,4.0776,4.0778,4.0878,0,4.0428,4.0512,4.0505,4.0585,4.0624,4.06,4.0643,4.0664,4.0669,4.0703,4.0709,4.0748,4.0714,4.0726,4.0761,4.0769,4.0823,4.0761,4.0813,4.0815,4.0809,4.0932,4.0952,4.1046,4.0891,4.0893,4.0895,0,4.0545,4.0575,4.0659,4.068,4.0696,4.0735,4.0769,4.0802,4.0825,4.0827,4.085,4.0837,4.0888,4.0844,4.0915,4.0873,4.0894,4.0902,4.0905,4.091,4.086,4.0941,4.1076,4.109,4.0915,4.0913,4.0912,0,4.0626,4.0687,4.0745,4.076,4.0785,4.0813,4.0826,4.0847,4.087,4.09,4.0915,4.0951,4.0971,4.0999,4.0997,4.0965,4.107,4.1025,4.1074,4.1074,4.1097,4.1096,4.1238,4.111,4.1109,4.1109,4.1109,0,4.073,4.0783,4.0782,4.0819,4.0878,4.0871,4.093,4.0939,4.0959,4.0997,4.0979,4.1016,4.101,4.1048,4.1047,4.1107,4.1116,4.1119,4.1118,4.1121,4.1121,4.1135,4.1129,4.1113,4.1112,4.1111,4.1111,0,4.083,4.0831,4.0894,4.0914,4.0921,4.0964,4.0981,4.1017,4.1021,4.107,4.1081,4.1088,4.1132,4.1133,4.1182,4.1182,4.1256,4.1247,4.1248,4.1246,4.1295,4.1291,4.1452,4.1473,4.1331,4.1332,4.1333,0,4.0896,4.0936,4.0961,4.0986,4.1,4.104,4.1064,4.1059,4.1085,4.1117,4.1149,4.1191,4.1224,4.1295,4.1305,4.1343,4.1336,4.139,4.1342,4.1344,4.1338,4.1336,4.1341,4.1399,4.1401,4.1402,4.1403,0,4.1014,4.1014,4.1049,4.1085,4.1115,4.1143,4.1169,4.1191,4.1189,4.122,4.1264,4.129,4.1342,4.1384,4.1422,4.1436,4.142,4.1418,4.1432,4.1436,4.1435,4.1437,4.1274,4.1415,4.1413,4.1413,4.1412,4.1411,4.11,4.1136,4.116,4.12,4.122,4.1245,4.128,4.129,4.1326,4.1368,4.1363,4.1414,4.1439,4.1488,4.1505,4.1545,4.1527,4.1546,4.1551,4.1556,4.1562,4.1428,4.1552,4.1552,4.1551,4.1551,4.1551,0,4.1218,4.1233,4.127,4.1309,4.1341,4.1324,4.1353,4.1381,4.1426,4.145,4.1484,4.1537,4.1578,4.1593,4.1634,4.1663,4.1657,4.1674,4.1672,4.1676,4.1575,4.156,4.1678,4.1678,4.1678,4.1678,4.1678,4.1678,4.1284,4.1344,4.1347,4.1417,4.1432,4.1481,4.1499,4.1524,4.1544,4.1603,4.1638,4.1647,4.1668,4.1711,4.1749,4.1753,4.1769,4.1789,4.179,4.1696,4.1683,4.1671,4.1656,4.1793,4.1793,4.1887,4.1888,4.1889]},{"header":{"parameterUnit":"m.s-1","parameterCategory":1,"la1":30.2991,"la2":30.254,"lo1":-89.0895,"lo2":-89.0444,"dy":0.0017,"dx":0.0017,"nx":28,"ny":28,"refTime":"2024-07-29T21:00:00:Z","depth":0,"parameterNumber":3,"parameterNumberName":"V-component_of_WINDS"},"data":[0,0,0,0,0,0,0,0,0,0,0,0,0,0,0,0,0,0,0,0,0,0,0,0,0,0,0,0,0,0,0,0,0,0,0,0,0,0,0,0,0,0,0,0,0,0,0,0,0,0,0,0,0,0,0,0,0,0,-1.6062,-1.6063,0,-1.6111,-1.6111,-1.6112,-1.6125,-1.6125,-1.6124,-1.6124,-1.6173,-1.6175,-1.6176,0,0,0,0,0,0,0,0,0,0,0,0,0,-1.5982,-1.5983,-1.6062,-1.6063,-1.6064,-1.6111,-1.6111,-1.6112,-1.6125,-1.6125,-1.6124,-1.6124,-1.6172,-1.6174,-1.6176,0,0,0,0,0,0,0,0,0,0,0,0,0,-1.6022,-1.5984,-1.6062,-1.6076,-1.6077,-1.6111,-1.6111,-1.6112,-1.6125,-1.6125,-1.6124,-1.6124,-1.6172,-1.6174,-1.6176,-1.6199,0,0,-1.6184,-1.6185,0,0,0,0,0,0,0,0,-1.602,-1.6025,-1.6073,-1.6075,-1.6077,-1.6111,-1.6101,-1.6141,-1.6125,-1.6107,-1.6124,-1.6124,-1.6153,-1.6157,-1.6167,-1.6202,-1.6204,-1.6184,-1.6185,-1.6186,-1.6187,0,0,0,0,0,0,0,-1.6017,-1.6023,-1.6082,-1.6074,-1.6076,-1.608,-1.6085,-1.6109,-1.6132,-1.6109,-1.611,-1.6115,-1.6154,-1.6164,-1.6168,-1.6205,-1.6184,-1.6186,-1.6187,-1.6188,-1.6264,-1.6264,0,0,0,0,0,0,-1.6012,-1.6021,-1.608,-1.6083,-1.6047,-1.6082,-1.6087,-1.6101,-1.6131,-1.6136,-1.6115,-1.6116,-1.6161,-1.6165,-1.617,-1.62,-1.6186,-1.6188,-1.619,-1.6263,-1.6264,-1.6264,0,0,0,0,0,0,-1.601,-1.6017,-1.6078,-1.6052,-1.606,-1.6083,-1.6098,-1.6102,-1.6113,-1.6137,-1.6141,-1.6122,-1.616,-1.6166,-1.6193,-1.6202,-1.619,-1.6192,-1.6262,-1.6263,-1.6264,-1.6261,0,0,0,0,0,0,-1.6008,-1.6016,-1.6025,-1.6052,-1.6062,-1.61,-1.6099,-1.6103,-1.6117,-1.6117,-1.6144,-1.6148,-1.6161,-1.6189,-1.6195,-1.6205,-1.6193,-1.6262,-1.6263,-1.6264,-1.626,-1.6261,-1.6262,0,0,0,0,0,-1.6005,-1.6021,-1.6025,-1.6032,-1.6073,-1.61,-1.6105,-1.612,-1.6117,-1.6127,-1.6143,-1.6147,-1.62,-1.6192,-1.6198,-1.6209,-1.6261,-1.6262,-1.6264,-1.6259,-1.6261,-1.6262,0,0,0,0,0,0,-1.5993,-1.6025,-1.603,-1.6055,-1.6075,-1.6102,-1.6114,-1.6121,-1.6141,-1.6141,-1.6157,-1.6163,-1.6189,-1.6202,-1.6192,-1.6235,-1.6231,-1.6234,-1.6225,-1.6227,-1.6228,-1.6224,-1.6195,0,0,0,0,0,-1.5994,-1.6014,-1.604,-1.606,-1.607,-1.6091,-1.6103,-1.6113,-1.6133,-1.6142,-1.6159,-1.618,-1.6201,-1.6215,-1.6235,-1.6262,-1.6269,-1.6273,-1.6274,-1.6275,-1.6277,-1.6295,-1.6297,-1.6269,-1.6269,-1.6269,0,0,-1.5995,-1.6015,-1.6026,-1.6059,-1.6075,-1.6096,-1.6097,-1.6118,-1.6134,-1.6145,-1.6171,-1.6185,-1.6209,-1.6236,-1.6249,-1.6247,-1.6287,-1.6277,-1.6277,-1.6279,-1.6296,-1.6299,-1.6301,-1.627,-1.627,-1.6269,0,0,-1.6008,-1.6024,-1.6044,-1.6061,-1.6086,-1.61,-1.6105,-1.6132,-1.6142,-1.6168,-1.6178,-1.6197,-1.6233,-1.625,-1.6263,-1.6286,-1.6291,-1.6292,-1.6298,-1.6315,-1.6317,-1.6319,-1.6328,-1.6331,-1.6294,-1.6294,-1.6294,0,-1.6006,-1.6037,-1.6053,-1.6074,-1.6089,-1.6101,-1.6122,-1.6137,-1.6168,-1.6178,-1.6176,-1.6224,-1.624,-1.6272,-1.6278,-1.6288,-1.6295,-1.6289,-1.6315,-1.6317,-1.632,-1.6329,-1.6332,-1.6294,-1.6294,-1.6294,-1.6294,0,-1.6034,-1.6056,-1.6069,-1.6099,-1.6115,-1.6136,-1.6156,-1.617,-1.6179,-1.6194,-1.6222,-1.6243,-1.6269,-1.6278,-1.6286,-1.6312,-1.6311,-1.6312,-1.6308,-1.6322,-1.6331,-1.6334,-1.6294,-1.6294,-1.6294,-1.6294,0,0,-1.6039,-1.608,-1.6084,-1.6099,-1.6129,-1.6147,-1.6169,-1.6195,-1.6208,-1.623,-1.6249,-1.6281,-1.6283,-1.6299,-1.6309,-1.6324,-1.6342,-1.6324,-1.6324,-1.6327,-1.6374,-1.6373,-1.6377,-1.6346,-1.6347,-1.6347,-1.6372,0,-1.6056,-1.6096,-1.6112,-1.6145,-1.6166,-1.6179,-1.6199,-1.622,-1.6235,-1.6255,-1.6271,-1.6294,-1.6294,-1.6304,-1.6319,-1.6336,-1.6352,-1.6335,-1.6365,-1.6366,-1.6359,-1.6381,-1.638,-1.6402,-1.6376,-1.6376,-1.6377,0,-1.608,-1.6104,-1.6139,-1.6168,-1.6178,-1.6195,-1.6222,-1.6241,-1.6266,-1.6276,-1.6295,-1.6305,-1.633,-1.6325,-1.6361,-1.6349,-1.6363,-1.6373,-1.6375,-1.6378,-1.6372,-1.6386,-1.6409,-1.6413,-1.6382,-1.6382,-1.6381,0,-1.6082,-1.6122,-1.6148,-1.6161,-1.6196,-1.6208,-1.6223,-1.6248,-1.6263,-1.6287,-1.6298,-1.6324,-1.6338,-1.6358,-1.6376,-1.6371,-1.641,-1.6407,-1.642,-1.642,-1.6427,-1.6427,-1.6454,-1.6435,-1.6435,-1.6435,-1.6435,0,-1.6099,-1.6121,-1.615,-1.6166,-1.6191,-1.621,-1.6234,-1.6251,-1.6273,-1.6293,-1.6306,-1.6325,-1.6347,-1.6369,-1.6383,-1.6412,-1.6418,-1.6427,-1.643,-1.6426,-1.6425,-1.6435,-1.6434,-1.6436,-1.6436,-1.6436,-1.6436,0,-1.6105,-1.6125,-1.6155,-1.6187,-1.6196,-1.6213,-1.624,-1.6257,-1.6273,-1.6299,-1.6306,-1.6332,-1.6359,-1.6379,-1.6413,-1.6423,-1.6453,-1.6456,-1.6445,-1.6447,-1.646,-1.6458,-1.6495,-1.6501,-1.6477,-1.6478,-1.6478,0,-1.6114,-1.6131,-1.6166,-1.6181,-1.6196,-1.622,-1.6236,-1.6257,-1.6274,-1.6305,-1.6319,-1.6347,-1.637,-1.6413,-1.6435,-1.6462,-1.6467,-1.6478,-1.6471,-1.6467,-1.6468,-1.6467,-1.647,-1.6479,-1.6479,-1.6479,-1.6479,0,-1.613,-1.614,-1.6164,-1.6192,-1.6212,-1.6235,-1.6258,-1.6269,-1.6294,-1.6313,-1.6341,-1.6359,-1.6396,-1.6424,-1.6454,-1.6471,-1.6479,-1.6481,-1.6486,-1.6482,-1.6475,-1.648,-1.6448,-1.648,-1.648,-1.648,-1.648,-1.648,-1.6138,-1.6155,-1.6182,-1.6209,-1.6229,-1.6251,-1.6269,-1.6289,-1.6313,-1.6345,-1.6355,-1.6385,-1.6412,-1.6453,-1.647,-1.6494,-1.6494,-1.65,-1.6502,-1.6504,-1.6504,-1.6471,-1.65,-1.65,-1.65,-1.65,-1.65,0,-1.6156,-1.6175,-1.6199,-1.6232,-1.6253,-1.6261,-1.6287,-1.6305,-1.6331,-1.6356,-1.6379,-1.6413,-1.6442,-1.6467,-1.6496,-1.6511,-1.6516,-1.6518,-1.6517,-1.6521,-1.6502,-1.6495,-1.6514,-1.6514,-1.6514,-1.6514,-1.6514,-1.6514,-1.6167,-1.6196,-1.621,-1.625,-1.6268,-1.6298,-1.6313,-1.6334,-1.6354,-1.6391,-1.6415,-1.6432,-1.6457,-1.6489,-1.6516,-1.6523,-1.6534,-1.6535,-1.6543,-1.6524,-1.6522,-1.6521,-1.6515,-1.6537,-1.6537,-1.6561,-1.6561,-1.6561]}]]